| time (UTC) | temp C | wind direction | speed KPH | gust KPH | rain 1hr cm | rain 24hr cm | rain mn cm | humidity % | barometer mb |
| 20260505180538 | 27 | 193 | 16.1 | 24.1 | 0.00 | 0.00 | 0.00 | 80 | 1009.2 |
| 20260505180027 | 27 | 195 | 14.5 | 25.7 | 0.00 | 0.00 | 0.00 | 80 | 1009.3 |
| 20260505175511 | 27 | 2 | 17.7 | 25.7 | 0.00 | 0.00 | 0.00 | 80 | 1009.4 |
| 20260505175015 | 27 | 181 | 19.3 | 25.7 | 0.00 | 0.00 | 0.00 | 79 | 1009.3 |
| 20260505173906 | 27 | 188 | 17.7 | 24.1 | 0.00 | 0.00 | 0.00 | 79 | 1009.4 |
| 20260505172721 | 27 | 194 | 17.7 | 25.7 | 0.00 | 0.00 | 0.00 | 80 | 1009.7 |
| 20260505172213 | 27 | 183 | 19.3 | 27.4 | 0.00 | 0.00 | 0.00 | 80 | 1009.6 |
| 20260505171713 | 27 | 2 | 19.3 | 27.4 | 0.00 | 0.00 | 0.00 | 80 | 1009.5 |
| 20260505171153 | 27 | 2 | 19.3 | 27.4 | 0.00 | 0.00 | 0.00 | 80 | 1009.6 |
| 20260505170650 | 27 | 2 | 19.3 | 27.4 | 0.00 | 0.00 | 0.00 | 80 | 1009.6 |
| 20260505170158 | 27 | 2 | 19.3 | 27.4 | 0.00 | 0.00 | 0.00 | 80 | 1009.6 |
| 20260505165657 | 27 | 2 | 17.7 | 27.4 | 0.00 | 0.00 | 0.00 | 80 | 1009.7 |
| 20260505165150 | 27 | 200 | 17.7 | 24.1 | 0.00 | 0.00 | 0.00 | 80 | 1009.7 |
| 20260505164631 | 27 | 196 | 19.3 | 24.1 | 0.00 | 0.00 | 0.00 | 80 | 1009.8 |
| 20260505164125 | 27 | 191 | 17.7 | 24.1 | 0.00 | 0.00 | 0.00 | 80 | 1009.6 |
| 20260505163626 | 27 | 170 | 17.7 | 25.7 | 0.00 | 0.00 | 0.00 | 80 | 1009.6 |
| 20260505163117 | 27 | 179 | 19.3 | 25.7 | 0.00 | 0.00 | 0.00 | 80 | 1009.6 |
| 20260505162614 | 27 | 2 | 17.7 | 25.7 | 0.00 | 0.00 | 0.00 | 80 | 1009.5 |
| 20260505160813 | 27 | 2 | 17.7 | 27.4 | 0.00 | 0.00 | 0.00 | 80 | 1009.3 |
| 20260505160317 | 27 | 188 | 17.7 | 27.4 | 0.00 | 0.00 | 0.00 | 81 | 1009.5 |
| 20260505152620 | 26 | 169 | 19.3 | 24.1 | 0.00 | 0.00 | 0.00 | 81 | 1009.2 |
| 20260505152121 | 26 | 190 | 19.3 | 25.7 | 0.00 | 0.00 | 0.00 | 81 | 1009.2 |
| 20260505151624 | 26 | 2 | 19.3 | 25.7 | 0.00 | 0.00 | 0.00 | 81 | 1009.3 |
| 20260505151107 | 26 | 187 | 19.3 | 25.7 | 0.00 | 0.00 | 0.00 | 81 | 1009.3 |
| 20260505150552 | 26 | 186 | 19.3 | 25.7 | 0.00 | 0.00 | 0.00 | 81 | 1009.3 |
| 20260505140154 | 25 | 211 | 19.3 | 27.4 | 0.00 | 0.00 | 0.00 | 82 | 1009.1 |
| 20260505130142 | 25 | 180 | 22.5 | 29.0 | 0.00 | 0.00 | 0.00 | 82 | 1008.6 |
| 20260505124825 | 25 | 188 | 20.9 | 25.7 | 0.00 | 0.00 | 0.00 | 82 | 1008.6 |
| 20260505124306 | 25 | 196 | 20.9 | 30.6 | 0.00 | 0.00 | 0.00 | 82 | 1008.7 |
| 20260505123748 | 25 | 185 | 19.3 | 30.6 | 0.00 | 0.00 | 0.00 | 82 | 1008.9 |
| 20260505123243 | 25 | 198 | 20.9 | 30.6 | 0.00 | 0.00 | 0.00 | 82 | 1008.9 |
| 20260505122747 | 25 | 188 | 20.9 | 30.6 | 0.00 | 0.00 | 0.00 | 82 | 1008.7 |
| 20260505122252 | 25 | 192 | 20.9 | 27.4 | 0.00 | 0.00 | 0.00 | 82 | 1008.8 |
| 20260505121124 | 25 | 173 | 20.9 | 30.6 | 0.00 | 0.00 | 0.00 | 82 | 1008.6 |
| 20260505120608 | 25 | 173 | 20.9 | 30.6 | 0.00 | 0.00 | 0.00 | 82 | 1008.5 |
| 20260505120103 | 25 | 194 | 22.5 | 30.6 | 0.00 | 0.00 | 0.00 | 82 | 1008.5 |
| 20260505115549 | 25 | 187 | 19.3 | 29.0 | 0.00 | 0.00 | 0.00 | 82 | 1008.4 |
| 20260505115052 | 25 | 186 | 17.7 | 27.4 | 0.00 | 0.00 | 0.00 | 82 | 1008.5 |
| 20260505113910 | 25 | 182 | 17.7 | 27.4 | 0.00 | 0.00 | 0.00 | 82 | 1008.7 |
| 20260505113351 | 25 | 163 | 16.1 | 27.4 | 0.00 | 0.00 | 0.00 | 82 | 1009.0 |
| 20260505112857 | 25 | 207 | 17.7 | 27.4 | 0.00 | 0.00 | 0.00 | 82 | 1008.9 |
| 20260505112343 | 25 | 180 | 17.7 | 27.4 | 0.00 | 0.00 | 0.00 | 82 | 1008.6 |
| 20260505111840 | 25 | 175 | 17.7 | 27.4 | 0.00 | 0.00 | 0.00 | 82 | 1008.4 |
| 20260505111330 | 25 | 201 | 19.3 | 27.4 | 0.00 | 0.00 | 0.00 | 82 | 1008.4 |
| 20260505110823 | 25 | 196 | 19.3 | 27.4 | 0.00 | 0.00 | 0.00 | 82 | 1008.3 |
| 20260505110324 | 25 | 183 | 19.3 | 27.4 | 0.00 | 0.00 | 0.00 | 81 | 1008.2 |
| 20260505102219 | 25 | 202 | 17.7 | 27.4 | 0.00 | 0.00 | 0.00 | 81 | 1008.5 |
| 20260505101701 | 25 | 206 | 17.7 | 27.4 | 0.00 | 0.00 | 0.00 | 81 | 1008.4 |
| 20260505100523 | 25 | 188 | 16.1 | 25.7 | 0.00 | 0.00 | 0.00 | 81 | 1008.5 |
| 20260505100015 | 25 | 168 | 17.7 | 27.4 | 0.00 | 0.00 | 0.00 | 81 | 1008.6 |
| 20260505095456 | 25 | 189 | 17.7 | 27.4 | 0.00 | 0.00 | 0.00 | 81 | 1008.5 |
| 20260505094959 | 25 | 199 | 17.7 | 27.4 | 0.00 | 0.00 | 0.00 | 80 | 1008.5 |
| 20260505094505 | 25 | 183 | 17.7 | 27.4 | 0.00 | 0.00 | 0.00 | 80 | 1008.5 |
| 20260505092709 | 25 | 192 | 17.7 | 29.0 | 0.00 | 0.00 | 0.00 | 80 | 1008.5 |
| 20260505092148 | 25 | 212 | 17.7 | 29.0 | 0.00 | 0.00 | 0.00 | 80 | 1008.5 |
| 20260505091637 | 25 | 192 | 17.7 | 29.0 | 0.00 | 0.00 | 0.00 | 80 | 1008.4 |
| 20260505091118 | 25 | 202 | 17.7 | 29.0 | 0.00 | 0.00 | 0.00 | 80 | 1008.5 |
| 20260505090604 | 25 | 191 | 19.3 | 27.4 | 0.00 | 0.00 | 0.00 | 80 | 1008.4 |
| 20260505090106 | 25 | 198 | 19.3 | 30.6 | 0.00 | 0.00 | 0.00 | 80 | 1008.4 |
| 20260505085602 | 25 | 195 | 20.9 | 30.6 | 0.00 | 0.00 | 0.00 | 80 | 1008.3 |
| 20260505085108 | 25 | 177 | 19.3 | 32.2 | 0.00 | 0.00 | 0.00 | 80 | 1008.4 |
| 20260505084552 | 25 | 208 | 19.3 | 32.2 | 0.00 | 0.00 | 0.00 | 80 | 1008.4 |
| 20260505084059 | 25 | 208 | 19.3 | 32.2 | 0.00 | 0.00 | 0.00 | 80 | 1008.5 |
| 20260505083544 | 25 | 185 | 19.3 | 32.2 | 0.00 | 0.00 | 0.00 | 80 | 1008.6 |
| 20260505082419 | 25 | 177 | 20.9 | 32.2 | 0.00 | 0.00 | 0.00 | 80 | 1008.7 |
| 20260505081925 | 25 | 186 | 20.9 | 32.2 | 0.00 | 0.00 | 0.00 | 80 | 1008.8 |
| 20260505081410 | 25 | 180 | 20.9 | 29.0 | 0.00 | 0.00 | 0.00 | 80 | 1008.9 |
| 20260505080244 | 25 | 188 | 19.3 | 32.2 | 0.00 | 0.00 | 0.00 | 79 | 1009.0 |
| 20260505075724 | 25 | 212 | 19.3 | 32.2 | 0.00 | 0.00 | 0.00 | 79 | 1009.0 |
| 20260505075219 | 25 | 179 | 20.9 | 32.2 | 0.00 | 0.00 | 0.00 | 79 | 1009.0 |
| 20260505074718 | 25 | 194 | 20.9 | 30.6 | 0.00 | 0.00 | 0.00 | 79 | 1008.9 |
| 20260505074224 | 25 | 197 | 20.9 | 30.6 | 0.00 | 0.00 | 0.00 | 79 | 1008.9 |
| 20260505073705 | 25 | 173 | 20.9 | 32.2 | 0.00 | 0.00 | 0.00 | 79 | 1009.0 |
| 20260505072520 | 25 | 209 | 20.9 | 32.2 | 0.00 | 0.00 | 0.00 | 78 | 1009.3 |
| 20260505072024 | 25 | 183 | 19.3 | 32.2 | 0.00 | 0.00 | 0.00 | 78 | 1009.3 |
| 20260505071516 | 25 | 173 | 19.3 | 30.6 | 0.00 | 0.00 | 0.00 | 78 | 1009.4 |
| 20260505070356 | 25 | 180 | 19.3 | 32.2 | 0.00 | 0.00 | 0.00 | 78 | 1009.7 |
| 20260505065249 | 25 | 201 | 19.3 | 30.6 | 0.00 | 0.00 | 0.00 | 77 | 1009.7 |
| 20260505064733 | 25 | 186 | 17.7 | 32.2 | 0.00 | 0.00 | 0.00 | 78 | 1009.8 |
| 20260505063536 | 25 | 195 | 22.5 | 32.2 | 0.00 | 0.00 | 0.00 | 77 | 1009.9 |
| 20260505063025 | 25 | 196 | 20.9 | 30.6 | 0.00 | 0.00 | 0.00 | 77 | 1010.0 |
| 20260505062521 | 25 | 196 | 22.5 | 30.6 | 0.00 | 0.00 | 0.00 | 77 | 1010.0 |
| 20260505061336 | 25 | 190 | 20.9 | 32.2 | 0.00 | 0.00 | 0.00 | 77 | 1009.9 |
| 20260505060821 | 25 | 207 | 22.5 | 32.2 | 0.00 | 0.00 | 0.00 | 76 | 1010.1 |
| 20260505060300 | 25 | 212 | 20.9 | 29.0 | 0.00 | 0.00 | 0.00 | 76 | 1010.1 |
| 20260505055759 | 25 | 195 | 20.9 | 29.0 | 0.00 | 0.00 | 0.00 | 77 | 1010.1 |
| 20260505055249 | 25 | 213 | 22.5 | 33.8 | 0.00 | 0.00 | 0.00 | 76 | 1010.1 |
| 20260505054740 | 25 | 2 | 24.1 | 33.8 | 0.00 | 0.00 | 0.00 | 76 | 1010.0 |
| 20260505054221 | 25 | 192 | 24.1 | 33.8 | 0.00 | 0.00 | 0.00 | 77 | 1010.1 |
| 20260505053710 | 25 | 169 | 24.1 | 33.8 | 0.00 | 0.00 | 0.00 | 76 | 1010.1 |
| 20260505053209 | 25 | 183 | 24.1 | 33.8 | 0.00 | 0.00 | 0.00 | 76 | 1009.8 |
| 20260505052712 | 25 | 175 | 24.1 | 32.2 | 0.00 | 0.00 | 0.00 | 76 | 1010.1 |
| 20260505052207 | 25 | 217 | 24.1 | 32.2 | 0.00 | 0.00 | 0.00 | 76 | 1010.1 |
| 20260505051707 | 25 | 187 | 24.1 | 32.2 | 0.00 | 0.00 | 0.00 | 76 | 1010.2 |
| 20260505051204 | 25 | 200 | 24.1 | 32.2 | 0.00 | 0.00 | 0.00 | 75 | 1010.2 |
| 20260505050654 | 25 | 171 | 24.1 | 32.2 | 0.00 | 0.00 | 0.00 | 75 | 1010.3 |
| 20260505050140 | 25 | 182 | 24.1 | 33.8 | 0.00 | 0.00 | 0.00 | 75 | 1010.5 |
| 20260505041454 | 25 | 191 | 24.1 | 30.6 | 0.00 | 0.00 | 0.00 | 74 | 1010.7 |
| 20260505040323 | 25 | 169 | 22.5 | 30.6 | 0.00 | 0.00 | 0.00 | 74 | 1010.8 |
| 20260505035821 | 25 | 182 | 22.5 | 35.4 | 0.00 | 0.00 | 0.00 | 74 | 1010.8 |
| 20260505035327 | 25 | 186 | 22.5 | 35.4 | 0.00 | 0.00 | 0.00 | 74 | 1010.8 |
| 20260505034808 | 25 | 197 | 24.1 | 35.4 | 0.00 | 0.00 | 0.00 | 73 | 1010.8 |
| 20260505034310 | 25 | 194 | 24.1 | 35.4 | 0.00 | 0.00 | 0.00 | 73 | 1010.7 |
| 20260505033807 | 25 | 189 | 22.5 | 32.2 | 0.00 | 0.00 | 0.00 | 74 | 1010.8 |
| 20260505032626 | 25 | 191 | 24.1 | 32.2 | 0.00 | 0.00 | 0.00 | 73 | 1010.8 |
| 20260505032111 | 25 | 176 | 22.5 | 30.6 | 0.00 | 0.00 | 0.00 | 73 | 1011.0 |
| 20260505031610 | 25 | 197 | 22.5 | 30.6 | 0.00 | 0.00 | 0.00 | 73 | 1010.9 |
| 20260505025826 | 25 | 173 | 24.1 | 32.2 | 0.00 | 0.00 | 0.00 | 73 | 1011.0 |
| 20260505024001 | 25 | 190 | 22.5 | 30.6 | 0.00 | 0.00 | 0.00 | 73 | 1010.9 |
| 20260505023503 | 25 | 2 | 22.5 | 29.0 | 0.00 | 0.00 | 0.00 | 72 | 1010.9 |
| 20260505022956 | 25 | 187 | 22.5 | 29.0 | 0.00 | 0.00 | 0.00 | 72 | 1010.9 |
| 20260505022500 | 25 | 2 | 20.9 | 30.6 | 0.00 | 0.00 | 0.00 | 72 | 1010.9 |
| 20260505021958 | 25 | 195 | 20.9 | 30.6 | 0.00 | 0.00 | 0.00 | 72 | 1011.0 |
| 20260505021453 | 25 | 184 | 20.9 | 30.6 | 0.00 | 0.00 | 0.00 | 71 | 1010.9 |
| 20260505020931 | 25 | 184 | 20.9 | 30.6 | 0.00 | 0.00 | 0.00 | 72 | 1010.7 |
| 20260505020417 | 25 | 186 | 20.9 | 29.0 | 0.00 | 0.00 | 0.00 | 72 | 1010.7 |
| 20260505015922 | 25 | 2 | 20.9 | 27.4 | 0.00 | 0.00 | 0.00 | 72 | 1010.6 |
| 20260505015403 | 25 | 196 | 20.9 | 27.4 | 0.00 | 0.00 | 0.00 | 71 | 1010.7 |
| 20260505014906 | 25 | 2 | 20.9 | 27.4 | 0.00 | 0.00 | 0.00 | 71 | 1010.7 |
| 20260505014401 | 25 | 2 | 20.9 | 25.7 | 0.00 | 0.00 | 0.00 | 71 | 1010.7 |
| 20260505013846 | 25 | 2 | 19.3 | 25.7 | 0.00 | 0.00 | 0.00 | 71 | 1010.9 |
| 20260505013338 | 25 | 194 | 20.9 | 27.4 | 0.00 | 0.00 | 0.00 | 71 | 1010.7 |
| 20260505012822 | 25 | 188 | 20.9 | 27.4 | 0.00 | 0.00 | 0.00 | 70 | 1010.8 |
| 20260505012304 | 25 | 165 | 19.3 | 27.4 | 0.00 | 0.00 | 0.00 | 71 | 1010.6 |
| 20260505010523 | 25 | 190 | 19.3 | 25.7 | 0.00 | 0.00 | 0.00 | 70 | 1010.6 |
| 20260505010001 | 25 | 167 | 20.9 | 25.7 | 0.00 | 0.00 | 0.00 | 70 | 1010.4 |
| 20260505005447 | 25 | 2 | 19.3 | 25.7 | 0.00 | 0.00 | 0.00 | 69 | 1010.4 |
| 20260505004935 | 25 | 2 | 19.3 | 30.6 | 0.00 | 0.00 | 0.00 | 70 | 1010.3 |
| 20260505004434 | 25 | 191 | 19.3 | 30.6 | 0.00 | 0.00 | 0.00 | 69 | 1010.3 |
| 20260505003937 | 25 | 162 | 20.9 | 30.6 | 0.00 | 0.00 | 0.00 | 69 | 1010.3 |
| 20260505002747 | 25 | 2 | 19.3 | 25.7 | 0.00 | 0.00 | 0.00 | 69 | 1010.5 |
| 20260505002224 | 25 | 2 | 17.7 | 25.7 | 0.00 | 0.00 | 0.00 | 69 | 1010.6 |
| 20260505001712 | 25 | 2 | 17.7 | 25.7 | 0.00 | 0.00 | 0.00 | 69 | 1010.7 |
| 20260505001214 | 25 | 2 | 19.3 | 25.7 | 0.00 | 0.00 | 0.00 | 68 | 1010.7 |
| 20260505000712 | 25 | 2 | 19.3 | 25.7 | 0.00 | 0.00 | 0.00 | 68 | 1010.6 |
| 20260504235558 | 25 | 2 | 17.7 | 25.7 | 0.00 | 0.00 | 0.00 | 68 | 1010.6 |
| 20260504235051 | 25 | 181 | 17.7 | 25.7 | 0.00 | 0.00 | 0.00 | 68 | 1010.9 |
| 20260504234533 | 25 | 2 | 16.1 | 25.7 | 0.00 | 0.00 | 0.00 | 68 | 1011.0 |
| 20260504234038 | 25 | 2 | 17.7 | 25.7 | 0.00 | 0.00 | 0.00 | 67 | 1011.0 |
| 20260504233519 | 25 | 2 | 17.7 | 25.7 | 0.00 | 0.00 | 0.00 | 66 | 1011.0 |
| 20260504233006 | 25 | 186 | 16.1 | 24.1 | 0.00 | 0.00 | 0.00 | 66 | 1011.1 |
| 20260504232506 | 25 | 2 | 16.1 | 24.1 | 0.00 | 0.00 | 0.00 | 66 | 1011.2 |
| 20260504232013 | 25 | 2 | 16.1 | 24.1 | 0.00 | 0.00 | 0.00 | 68 | 1011.3 |
| 20260504231512 | 25 | 2 | 16.1 | 22.5 | 0.00 | 0.00 | 0.00 | 66 | 1011.3 |
| 20260504231018 | 25 | 2 | 16.1 | 22.5 | 0.00 | 0.00 | 0.00 | 67 | 1011.4 |
| 20260504225852 | 25 | 2 | 16.1 | 20.9 | 0.00 | 0.00 | 0.00 | 66 | 1011.3 |
| 20260504225351 | 25 | 180 | 14.5 | 20.9 | 0.00 | 0.00 | 0.00 | 66 | 1011.3 |
| 20260504224855 | 26 | 186 | 14.5 | 20.9 | 0.00 | 0.00 | 0.00 | 65 | 1011.5 |
| 20260504223734 | 26 | 181 | 14.5 | 20.9 | 0.00 | 0.00 | 0.00 | 65 | 1011.7 |
| 20260504223220 | 26 | 2 | 14.5 | 20.9 | 0.00 | 0.00 | 0.00 | 65 | 1011.7 |
| 20260504222727 | 26 | 2 | 14.5 | 19.3 | 0.00 | 0.00 | 0.00 | 64 | 1011.9 |
| 20260504222221 | 26 | 190 | 12.9 | 20.9 | 0.00 | 0.00 | 0.00 | 64 | 1011.8 |
| 20260504221058 | 26 | 2 | 16.1 | 20.9 | 0.00 | 0.00 | 0.00 | 63 | 1011.8 |
| 20260504215942 | 26 | 2 | 12.9 | 19.3 | 0.00 | 0.00 | 0.00 | 63 | 1011.9 |
| 20260504214809 | 26 | 183 | 14.5 | 20.9 | 0.00 | 0.00 | 0.00 | 62 | 1012.0 |
| 20260504214258 | 26 | 2 | 14.5 | 20.9 | 0.00 | 0.00 | 0.00 | 62 | 1012.0 |
| 20260504213805 | 26 | 2 | 16.1 | 20.9 | 0.00 | 0.00 | 0.00 | 62 | 1012.0 |
| 20260504213302 | 26 | 181 | 16.1 | 22.5 | 0.00 | 0.00 | 0.00 | 63 | 1012.2 |
| 20260504212743 | 26 | 197 | 14.5 | 22.5 | 0.00 | 0.00 | 0.00 | 62 | 1012.2 |
| 20260504212235 | 26 | 2 | 14.5 | 22.5 | 0.00 | 0.00 | 0.00 | 62 | 1012.5 |
| 20260504211719 | 26 | 2 | 14.5 | 22.5 | 0.00 | 0.00 | 0.00 | 62 | 1012.6 |
| 20260504211200 | 26 | 2 | 14.5 | 20.9 | 0.00 | 0.00 | 0.00 | 62 | 1012.5 |
| 20260504210648 | 26 | 2 | 14.5 | 20.9 | 0.00 | 0.00 | 0.00 | 61 | 1012.6 |
| 20260504210130 | 26 | 192 | 14.5 | 22.5 | 0.00 | 0.00 | 0.00 | 63 | 1012.5 |
| 20260504205608 | 26 | 2 | 14.5 | 22.5 | 0.00 | 0.00 | 0.00 | 63 | 1012.6 |
| 20260504205054 | 26 | 2 | 14.5 | 22.5 | 0.00 | 0.00 | 0.00 | 63 | 1012.6 |
| 20260504204559 | 26 | 2 | 12.9 | 22.5 | 0.00 | 0.00 | 0.00 | 62 | 1012.7 |
| 20260504204056 | 26 | 2 | 12.9 | 19.3 | 0.00 | 0.00 | 0.00 | 63 | 1012.9 |
| 20260504203558 | 26 | 2 | 12.9 | 19.3 | 0.00 | 0.00 | 0.00 | 61 | 1013.0 |
| 20260504201119 | 26 | 2 | 14.5 | 19.3 | 0.00 | 0.00 | 0.00 | 62 | 1013.1 |
| 20260504200623 | 26 | 2 | 14.5 | 19.3 | 0.00 | 0.00 | 0.00 | 62 | 1013.0 |
| 20260504200114 | 26 | 2 | 14.5 | 20.9 | 0.00 | 0.00 | 0.00 | 61 | 1013.2 |
| 20260504195619 | 26 | 193 | 14.5 | 20.9 | 0.00 | 0.00 | 0.00 | 61 | 1013.3 |
| 20260504195119 | 26 | 192 | 12.9 | 20.9 | 0.00 | 0.00 | 0.00 | 62 | 1013.4 |
| 20260504194624 | 26 | 166 | 14.5 | 20.9 | 0.00 | 0.00 | 0.00 | 61 | 1013.6 |
| 20260504194118 | 26 | 197 | 14.5 | 24.1 | 0.00 | 0.00 | 0.00 | 61 | 1013.6 |
| 20260504192350 | 26 | 2 | 16.1 | 20.9 | 0.00 | 0.00 | 0.00 | 62 | 1013.6 |
| 20260504191828 | 26 | 183 | 16.1 | 20.9 | 0.00 | 0.00 | 0.00 | 60 | 1013.7 |
| 20260504191333 | 26 | 2 | 14.5 | 20.9 | 0.00 | 0.00 | 0.00 | 60 | 1013.7 |
| 20260504185541 | 26 | 2 | 14.5 | 20.9 | 0.00 | 0.00 | 0.00 | 61 | 1013.8 |
| 20260504185025 | 26 | 2 | 16.1 | 20.9 | 0.00 | 0.00 | 0.00 | 62 | 1013.9 |
| 20260504184526 | 26 | 2 | 14.5 | 20.9 | 0.00 | 0.00 | 0.00 | 60 | 1013.9 |
| 20260504184032 | 27 | 188 | 14.5 | 22.5 | 0.00 | 0.00 | 0.00 | 60 | 1013.9 |
| 20260504183531 | 27 | 227 | 12.9 | 22.5 | 0.00 | 0.00 | 0.00 | 59 | 1014.1 |
| 20260504182404 | 26 | 2 | 14.5 | 22.5 | 0.00 | 0.00 | 0.00 | 60 | 1014.2 |
| 20260504181846 | 26 | 190 | 14.5 | 22.5 | 0.00 | 0.00 | 0.00 | 60 | 1014.1 |
| 20260504181328 | 26 | 2 | 14.5 | 22.5 | 0.00 | 0.00 | 0.00 | 60 | 1014.1 |